Regional Weather Roundup
Issued by NWS

Home | Current Version | Previous Version | Text Only | Print | Product List | Glossary Off
Versions: 1 2 3 4 5 6 7 8 9 10 11 12 13 14 15 16 17 18 19 20 21 22 23 24 25 26 27 28 29 30 31 32 33 34 35 36 37 38 39 40 41 42 43 44 45 46 47 48 49 50

000
ASUS43 KMPX 290510
RWRMN
WEATHER ROUNDUP FOR MINNESOTA
NATIONAL WEATHER SERVICE TWIN CITIES/CHANHASSEN MN
1200 AM CDT MON MAY 29 2017


NOTE: "FAIR" INDICATES FEW OR NO CLOUDS BELOW 12,000 FEET WITH NO
SIGNIFICANT WEATHER AND/OR OBSTRUCTIONS TO VISIBILITY. N/A MEANS
CURRENT SKY AND/OR WEATHER CONDITIONS ARE NOT AVAILABLE.

MNZ060>063-068>070-290600-
   Twin Cities Metro

CITY           SKY/WX    TMP DP  RH WIND       PRES   REMARKS
TWIN CITIES    CLOUDY    57  48  72 W6        29.74F
ST PAUL        CLOUDY    56  50  80 SW6       29.74S
CRYSTAL        CLOUDY    55  47  74 W6        29.72F
BLAINE         LGT RAIN  55  52  88 W7        29.73S
LAKEVILLE      CLOUDY    55  45  67 W5        29.75F
EDEN PRAIRIE   CLOUDY    59  45  59 W7        29.73F
SOUTH ST PAUL  CLOUDY    56  49  77 W5        29.74S
LAKE ELMO      CLOUDY    54  52  94 SW3       29.74S
$$
MNZ001>005-007-008-013>017-022>024-027-028-290600-
   Northwest Minnesota

CITY           SKY/WX    TMP DP  RH WIND       PRES   REMARKS
BEMIDJI        CLOUDY    49  47  92 NW14      29.71S
HALLOCK        CLOUDY    54  48  82 NW16G22   29.76F
ROSEAU         CLOUDY    52  46  82 NW12      29.72F
WARROAD        CLOUDY    50  46  87 NW8       29.72S
THIEF RVR FALL LGT RAIN  50  48  93 NW13      29.76S
CROOKSTON      CLOUDY    52  48  87 NW16      29.78S
FOSSTON        CLOUDY    48  46  93 NW9G17    29.75S
DETROIT LAKES  MOCLDY    52  45  76 NW16      29.78S
MOORHEAD       CLOUDY    54  48  82 NW12      29.81S
PARK RAPIDS    CLOUDY    52  45  77 NW14      29.73R
MAHNOMEN       CLOUDY    50  47  88 NW14      29.76S
$$
MNZ006-009>011-018-025>026-290600-
   North Central Minnesota

CITY           SKY/WX    TMP DP  RH WIND       PRES   REMARKS
BAUDETTE       CLOUDY    51  46  83 NW14G24   29.68S
FLAG ISLAND    CLEAR     50  46  87 NW21      29.68S
INTL FALLS     CLOUDY    53  49  86 NW8       29.63S
WASKISH        CLOUDY    52  48  87 NW13      29.68F
BIG FORK       CLOUDY    52  48  87 W5        29.66S
LONGVILLE      CLOUDY    52  50  93 W6        29.69S
GRAND RAPIDS   CLOUDY    53  48  83 W7        29.68S
CRANE LAKE     CLOUDY    52  50  93 W3        29.63S
ORR            LGT RAIN  52  48  87 NW8       29.60F
COOK           CLOUDY    54  48  82 W6        29.63S
WALKER         CLOUDY    50  47  92 W9        29.71S
$$
MNZ012-019>021-037-290600-
   Northeast Minnesota

CITY           SKY/WX    TMP DP  RH WIND       PRES   REMARKS
DULUTH         LGT RAIN  51  49  92 W9        29.63F
ELY            MOCLDY    48  48 100 W5        29.60F
HIBBING        CLOUDY    50  50 100 W5        29.63F
EVELETH        CLOUDY    53  47  82 W5        29.64S
DULUTH HARBOR  CLOUDY    55  52  88 SW9       29.64S
TWO HARBORS    CLOUDY    55  50  82 W6        29.59F
SILVER BAY     CLOUDY    54  50  87 NW3       29.58F
GRAND MARAIS     N/A     43  43 100 NE6       29.58F
G MARAIS ARPRT CLOUDY    48  45  87 CALM      29.59S
$$
MNZ029>031-032-039>041-046>048-054>057-064-290600-
   West Central Minnesota

CITY           SKY/WX    TMP DP  RH WIND       PRES   REMARKS
FERGUS FALLS   CLOUDY    52  48  87 NW12      29.78F
WHEATON        CLOUDY    54  46  76 W9        29.84S
MORRIS         CLOUDY    54  48  82 W12       29.81R
ALEXANDRIA     CLOUDY    52  47  83 NW12      29.78S
ELBOW LAKE     CLOUDY    53  48  84 NW10      29.81S
WADENA         MOCLDY    50  45  81 NW9G16    29.75S
GLENWOOD       CLEAR     52  46  82 NW15      29.79R
APPLETON       CLEAR     54  45  71 W9        29.82S
BENSON         CLEAR     52  46  82 NW10      29.82S
ORTONVILLE     CLEAR     54  45  71 W10       29.83S
MADISON        CLEAR     55  46  71 W8        29.84S
WILLMAR        FAIR      54  48  82 W14       29.81S
$$
MNZ033>034-036-042>043-049>051-058-059-290600-
   Central Minnesota

CITY           SKY/WX    TMP DP  RH WIND       PRES   REMARKS
ST CLOUD       CLOUDY    53  50  89 W8        29.72F
SAUK CENTRE    CLOUDY    53  47  81 NW13      29.77R
PAYNESVILLE    MOCLDY    55  46  72 W13       29.77S
AITKIN         CLOUDY    52  48  87 W3        29.68S
PINE RIVER     CLOUDY    52  48  87 W6        29.75S
BRAINERD       CLOUDY    54  47  77 NW15      29.72R
STAPLES        CLOUDY    52  48  87 NW8       29.74R
LONG PRAIRIE   CLOUDY    52  46  82 W12G18    29.76R
LITTLE FALLS   CLOUDY    52  46  82 W8        29.73S
LITCHFIELD     MOCLDY    59  48  67 NW15G21   29.77R
BUFFALO        CLOUDY    56  46  68 W7        29.74F
MAPLE LAKE     CLOUDY    57  49  74 W6        29.74F
HUTCHINSON     CLOUDY    58  47  67 W18G26    29.78S
$$
MNZ037-044-045-052-053-290600-
   East Central Minnesota

CITY           SKY/WX    TMP DP  RH WIND       PRES   REMARKS
PRINCETON      RAIN      54  52  94 W10G17    29.73R
MORA           PTCLDY    50  46  87 W7        29.72S
CAMBRIDGE      CLOUDY    54  46  76 W6        29.70S
RUSH CITY      CLOUDY    53  47  81 W8        29.71S
MOOSE LAKE     CLOUDY    50  46  87 W5        29.66S
HINCKLEY       MOCLDY    50  48  93 W8        29.69S
CLOQUET        MOCLDY    52  46  82 W6        29.65S
MCGREGOR       CLOUDY    54  48  82 W8        29.68S
$$
MNZ071>073-080-081-089-090-097-098-290600-
   Southwest Minnesota

CITY           SKY/WX    TMP DP  RH WIND       PRES   REMARKS
MONTEVIDEO     CLEAR     55  45  67 NW9       29.83R
CANBY          CLEAR     53  44  72 CALM      29.87S
MARSHALL       CLEAR     55  43  63 NW14      29.85R
REDWOOD FALLS  CLEAR     57  44  62 NW15G22   29.81R
OLIVIA         PTCLDY    55  45  67 NW14G21   29.80S
PIPESTONE      PTCLDY    54  46  76 NW6       29.88S
WINDOM         CLEAR     54  46  76 W10       29.84S
WORTHINGTON    CLEAR     55  45  68 W12       29.86S
JACKSON        PTCLDY    54  45  71 W9        29.85R
TRACY          CLEAR     58  45  62 NW21G28   29.85R
SLAYTON        PTCLDY    53  47  78 W12       29.87S
$$
MNZ065>067-074>077-082>085-091>093-290600-
   South Central Minnesota

CITY           SKY/WX    TMP DP  RH WIND       PRES   REMARKS
MANKATO        CLEAR     58  44  60 W9        29.78
NEW ULM        CLEAR     55  45  67 W14       29.79F
ST JAMES       CLEAR     55  46  71 W12       29.82S
FAIRMONT       PTCLDY    58  44  60 W10       29.82S
GLENCOE        MOCLDY    60  48  64 W23G30    29.75F
FARIBAULT      CLEAR     57  46  67 W8        29.77F
OWATONNA       CLEAR     55  43  62 W9        29.77F
WASECA         CLEAR     55  43  62 W10       29.79S
ALBERT LEA     CLEAR     61  46  59 W6        29.79F
$$
MNZ078>079-086>088-094>096-290600-
   Southeast Minnesota

CITY           SKY/WX    TMP DP  RH WIND       PRES   REMARKS
ROCHESTER      CLEAR     55  43  63 W8        29.78S
RED WING       CLEAR     54  50  87 CALM      29.73S
STANTON        PTCLDY    57  45  64 W7        29.74F
DODGE CENTER   CLEAR     54  43  66 W7        29.77F
WINONA         CLOUDY    55  46  71 NW3       29.74R
AUSTIN         CLEAR     57  43  58 W8        29.77F
PRESTON        CLEAR     57  41  54 W14       29.78S
$$
ABBREVIATIONS USED IN REMARKS
   TC - TEMPERATURES IN CELSIUS
  WCI - WIND CHILL INDEX
   HX - HEAT INDEX
  VSB - VISIBILITY
$$



USA.gov is the U.S. government's official web portal to all federal, state and local government web resources and services.